XIWANG-1 (HOPE-1)

Last updated on Mon Sep 21 2026 00:03:14 GMT+0000 (Coordinated Universal Time)

1 36122U 09072B 26263.62266771 -.00000045 00000+0 -25610-5 0 9997 2 36122 100.4129 215.9650 0007874 20.8339 339.3093 13.16440890805562
UTC large
Height (km)
Speed (km/s)
/
Latitude / Longitude
Inclination (degrees)
Orbital Period (minutes)
Azimuth
Elevation
Range (km)
Doppler Factor

Next 0 passes for location: London (51.5072 / 0.1276)

No passes found over London.